FW1286 Weather Reports


Display with metric or nautical units.
time (UTC)temp
F
wind
direction
speed
MPH
gust
MPH
rain 1hr
in
rain 24hr
in
rain mn
in
humidity
%
barometer
mb
20260831111955 75 131 1.0 5.0 0.00 0.00 0.00 92 1014.2
20260831110958 76 135 1.0 6.0 0.00 0.00 0.00 92 1014.2
20260831110016 76 131 1.0 6.0 0.00 0.00 0.00 92 1014.1
20260831105025 76 138 3.0 8.0 0.00 0.00 0.00 92 1014.1
20260831104009 76 138 2.0 8.0 0.00 0.00 0.00 91 1014.0
20260831103029 76 148 2.0 7.0 0.00 0.00 0.00 91 1014.1
20260831101959 76 166 3.0 8.0 0.00 0.00 0.00 91 1014.1
20260831100932 76 105 2.0 8.0 0.00 0.00 0.00 90 1014.2
20260831095941 76 140 2.0 6.0 0.00 0.00 0.00 90 1014.0
20260831094945 77 117 1.0 6.0 0.00 0.00 0.00 89 1014.0
20260831093937 77 129 2.0 5.0 0.00 0.00 0.00 88 1014.0
20260831091857 77 128 2.0 6.0 0.00 0.00 0.00 86 1013.9
20260831090835 77 119 3.0 9.0 0.00 0.00 0.00 85 1013.8
20260831085849 78 139 3.0 9.0 0.00 0.00 0.00 85 1013.9
20260831084818 78 103 3.0 8.0 0.00 0.00 0.00 84 1014.0
20260831083805 78 102 4.0 8.0 0.00 0.00 0.00 83 1014.0
20260831081559 79 142 4.0 10.0 0.00 0.00 0.00 82 1013.8
20260831080605 79 109 3.0 9.0 0.00 0.00 0.00 82 1013.8
20260831074502 79 147 2.0 6.0 0.00 0.00 0.00 81 1013.8
20260831073523 79 138 2.0 6.0 0.00 0.00 0.00 81 1013.8
20260831072521 80 137 2.0 6.0 0.00 0.00 0.00 80 1013.9
20260831071452 80 144 2.0 8.0 0.00 0.00 0.00 80 1013.9
20260831065408 80 130 1.0 4.0 0.00 0.00 0.00 79 1014.0
20260831064426 80 115 1.0 4.0 0.00 0.00 0.00 78 1014.0
20260831063355 81 105 1.0 4.0 0.00 0.00 0.00 77 1014.1
20260831062329 81 121 2.0 6.0 0.00 0.00 0.00 77 1014.2
20260831055107 82 119 2.0 6.0 0.00 0.00 0.00 74 1014.0
20260831054102 83 146 2.0 6.0 0.00 0.00 0.00 74 1014.0
20260831053054 83 133 1.0 6.0 0.00 0.00 0.00 73 1014.0
20260831052113 83 105 2.0 7.0 0.00 0.00 0.00 72 1014.0
20260831051108 84 118 3.0 10.0 0.00 0.00 0.00 71 1013.8
20260831050104 84 89 4.0 10.0 0.00 0.00 0.00 70 1013.7
20260831045122 84 104 4.0 8.0 0.00 0.00 0.00 70 1013.7
20260831044141 84 132 4.0 9.0 0.00 0.00 0.00 70 1013.6
20260831043120 85 107 4.0 9.0 0.00 0.00 0.00 69 1013.6
20260831042103 85 140 5.0 11.0 0.00 0.00 0.00 69 1013.6
20260831035935 85 94 4.0 13.0 0.00 0.00 0.00 69 1013.5
20260831034952 85 105 5.0 13.0 0.00 0.00 0.00 69 1013.4
20260831032738 85 96 3.0 8.0 0.00 0.00 0.00 69 1013.3
20260831031751 85 55 3.0 6.0 0.00 0.00 0.00 67 1013.1
20260831030758 85 103 3.0 8.0 0.00 0.00 0.00 65 1013.0
20260831025800 85 75 3.0 8.0 0.00 0.00 0.00 64 1012.8
20260831024744 83 82 1.0 6.0 0.00 0.00 0.00 66 1012.6
20260831023718 83 71 0.0 2.0 0.00 0.00 0.00 67 1012.4
20260831021613 83 71 0.0 2.0 0.00 0.00 0.00 66 1012.2
20260831020557 84 71 0.0 2.0 0.00 0.00 0.00 66 1012.0
20260831015544 84 71 0.0 3.0 0.00 0.00 0.00 66 1011.9
20260831014520 85 71 0.0 3.0 0.00 0.00 0.00 65 1011.8
20260831013542 85 71 0.0 1.0 0.00 0.00 0.00 64 1011.7
20260831011327 87 71 0.0 2.0 0.00 0.00 0.00 61 1011.5
20260831010336 88 71 0.0 1.0 0.00 0.00 0.00 59 1011.4
20260831005324 90 71 0.0 3.0 0.00 0.00 0.00 57 1011.4
20260831004332 91 71 1.0 4.0 0.00 0.00 0.00 55 1011.5
20260831003341 92 71 0.0 4.0 0.00 0.00 0.00 53 1011.5
20260831002353 93 71 0.0 3.0 0.00 0.00 0.00 52 1011.4
20260831001334 94 71 1.0 4.0 0.00 0.00 0.00 50 1011.5
20260830235157 94 78 3.0 7.0 0.00 0.00 0.00 46 1011.5
20260830234142 95 107 3.0 6.0 0.00 0.00 0.00 47 1011.5
20260830233124 95 121 3.0 7.0 0.00 0.00 0.00 47 1011.6
20260830232120 95 128 1.0 7.0 0.00 0.00 0.00 46 1011.6
20260830231135 96 115 2.0 7.0 0.00 0.00 0.00 46 1011.5
20260830230128 95 136 3.0 8.0 0.00 0.00 0.00 47 1011.5
20260830225131 95 148 4.0 8.0 0.00 0.00 0.00 46 1011.6
20260830224133 95 95 4.0 11.0 0.00 0.00 0.00 47 1011.6
20260830223104 95 125 4.0 11.0 0.00 0.00 0.00 47 1011.7
20260830222100 95 124 4.0 10.0 0.00 0.00 0.00 48 1011.7
20260830221109 95 107 3.0 10.0 0.00 0.00 0.00 49 1011.9
20260830220112 95 136 4.0 11.0 0.00 0.00 0.00 47 1011.8
20260830215105 95 147 4.0 11.0 0.00 0.00 0.00 49 1011.9
20260830214105 96 138 5.0 11.0 0.00 0.00 0.00 48 1012.0
20260830213102 95 109 5.0 10.0 0.00 0.00 0.00 49 1012.0
20260830212117 95 111 4.0 10.0 0.00 0.00 0.00 50 1012.2
20260830211103 95 130 5.0 11.0 0.00 0.00 0.00 50 1012.3
20260830210038 95 162 4.0 11.0 0.00 0.00 0.00 50 1012.4
20260830205032 95 133 5.0 11.0 0.00 0.00 0.00 50 1012.6
20260830204013 94 71 5.0 10.0 0.00 0.00 0.00 52 1012.8
20260830203028 94 96 5.0 10.0 0.00 0.00 0.00 53 1012.9
20260830202013 94 165 4.0 10.0 0.00 0.00 0.00 53 1013.1
20260830200939 94 182 4.0 10.0 0.00 0.00 0.00 54 1013.2
20260830195913 93 191 4.0 17.0 0.00 0.00 0.00 55 1013.3
20260830193738 93 180 4.0 11.0 0.00 0.00 0.00 54 1013.8
20260830192716 92 61 4.0 13.0 0.00 0.00 0.00 56 1014.0
20260830191701 92 95 5.0 13.0 0.00 0.00 0.00 57 1014.0
20260830190717 92 182 5.0 12.0 0.00 0.00 0.00 58 1014.1
20260830185710 92 150 5.0 13.0 0.00 0.00 0.00 58 1014.3
20260830184637 92 109 5.0 13.0 0.00 0.00 0.00 59 1014.4
20260830183634 92 132 4.0 11.0 0.00 0.00 0.00 56 1014.5
20260830182656 92 159 4.0 10.0 0.00 0.00 0.00 61 1014.7
20260830181623 91 103 5.0 11.0 0.00 0.00 0.00 60 1014.8
20260830180620 90 107 6.0 11.0 0.00 0.00 0.00 60 1015.0
20260830175550 91 103 5.0 10.0 0.00 0.00 0.00 60 1015.2
20260830174537 90 80 4.0 11.0 0.00 0.00 0.00 64 1015.3
20260830173524 90 111 4.0 11.0 0.00 0.00 0.00 63 1015.6
20260830172503 89 112 5.0 10.0 0.00 0.00 0.00 64 1015.9
20260830165156 88 184 4.0 8.0 0.00 0.00 0.00 67 1016.1
20260830164132 87 80 4.0 8.0 0.00 0.00 0.00 68 1016.2
20260830163127 88 163 4.0 9.0 0.00 0.00 0.00 68 1016.2
20260830162149 87 76 4.0 9.0 0.00 0.00 0.00 69 1016.3
20260830161137 86 192 4.0 9.0 0.00 0.00 0.00 70 1016.1
20260830160119 85 130 3.0 9.0 0.00 0.00 0.00 73 1016.1
20260830155113 85 165 4.0 9.0 0.00 0.00 0.00 72 1016.0
20260830154137 85 189 4.0 11.0 0.00 0.00 0.00 73 1016.0
20260830153152 84 126 5.0 11.0 0.00 0.00 0.00 75 1016.1
20260830152131 83 190 4.0 11.0 0.00 0.00 0.00 76 1016.0
20260830151130 82 138 6.0 11.0 0.00 0.00 0.00 78 1016.1
20260830150134 82 196 6.0 11.0 0.00 0.00 0.00 78 1016.1
20260830145154 81 173 5.0 9.0 0.00 0.00 0.00 80 1016.1
20260830144200 80 182 5.0 11.0 0.00 0.00 0.00 82 1016.0
20260830143217 80 165 5.0 11.0 0.00 0.00 0.00 83 1016.1
20260830142229 79 173 5.0 10.0 0.00 0.00 0.00 85 1016.0
20260830141238 79 171 4.0 8.0 0.00 0.00 0.00 87 1015.9
20260830140241 77 143 3.0 7.0 0.00 0.00 0.00 88 1015.7
20260830132946 76 178 1.0 5.0 0.00 0.00 0.00 90 1015.5
20260830131950 75 164 1.0 4.0 0.00 0.00 0.00 91 1015.5
20260830130926 74 134 0.0 3.0 0.00 0.00 0.00 92 1015.4
20260830125930 74 157 0.0 1.0 0.00 0.00 0.00 92 1015.4
20260830123740 73 157 0.0 0.0 0.00 0.00 0.00 92 1015.2
20260830122804 72 157 0.0 0.0 0.00 0.00 0.00 91 1015.0
20260830121818 73 157 0.0 0.0 0.00 0.00 0.00 90 1014.9
20260830120816 73 157 0.0 0.0 0.00 0.00 0.00 90 1014.9
20260830115839 73 157 0.0 0.0 0.00 0.00 0.00 90 1014.8
20260830114821 73 157 0.0 0.0 0.00 0.00 0.00 89 1014.7
20260830113811 74 157 0.0 0.0 0.00 0.00 0.00 89 1014.6
20260830112827 74 157 0.0 0.0 0.00 0.00 0.00 89 1014.5